Date String (YYYY-MM-DD hh:mm:ss) UTC,Instrument flags,Ambient pressure (hPa),Sample flow (lpm),Bypass flow (lpm),Sample temperature (°C),Ambient temperature (°C),ASC tube jacket temperature (°C),LED temperature (°C),Box temperature (°C),Sample RH (%),Span deviation,Mass concentration (μg/m³),Mass concentration (μg/m³),Mass concentration (μg/m³)
DateTimeUTC,F1_M11,P_M11,Q1_M11,Q2_M11,T1_M11,T2_M11,T3_M11,T4_M11,T5_M11,U1_M11,ZSPAN_M11,X0_M11,X2_M11,X1_M11
2022-11-28 06:00:00,,0813.9,4.99,0.00,21.6,19.6,00.0,30.7,23.3,10.0,0000.0,0000.93,0000.60,0000.46
2022-11-28 06:01:00,,0813.6,5.00,0.00,21.6,19.5,00.0,30.7,23.2,09.8,0000.0,0001.02,0000.62,0000.47
2022-11-28 06:02:00,,0813.5,5.00,0.00,21.5,19.5,00.0,30.7,23.2,10.0,0000.0,0001.03,0000.64,0000.48
2022-11-28 06:03:00,,0813.8,4.99,0.00,21.5,19.6,00.0,30.6,23.3,09.9,0000.0,0000.98,0000.63,0000.47
2022-11-28 06:04:00,,0814.1,4.99,0.00,21.5,19.7,00.0,30.6,23.3,09.9,0000.0,0000.96,0000.62,0000.47
2022-11-28 06:05:00,,0814.0,5.00,0.00,21.5,19.9,00.0,30.6,23.3,09.9,0000.0,0000.98,0000.63,0000.47
2022-11-28 06:06:00,,0813.6,5.00,0.00,21.5,20.0,00.0,30.6,23.4,10.1,0000.0,0001.06,0000.60,0000.46
2022-11-28 06:07:00,,0813.6,5.01,0.00,21.5,20.1,00.0,30.6,23.4,10.0,0000.0,0001.07,0000.59,0000.45
2022-11-28 06:08:00,,0813.5,5.00,0.00,21.5,20.2,00.0,30.6,23.4,10.0,0000.0,0002.35,0000.59,0000.44
2022-11-28 06:09:00,,0813.6,5.01,0.00,21.6,20.2,00.0,30.6,23.4,10.0,0000.0,0002.67,0000.57,0000.44
2022-11-28 06:10:00,,0814.1,5.00,0.00,21.6,20.3,00.0,30.6,23.5,10.0,0000.0,0002.68,0000.56,0000.44
2022-11-28 06:11:00,,0813.5,5.00,0.00,21.6,20.3,00.0,30.6,23.5,09.9,0000.0,0002.69,0000.55,0000.43
2022-11-28 06:12:00,,0813.3,4.99,0.00,21.6,20.3,00.0,30.5,23.5,09.9,0000.0,0002.62,0000.56,0000.42
2022-11-28 06:13:00,,0813.1,5.00,0.00,21.6,20.2,00.0,30.5,23.4,09.9,0000.0,0002.61,0000.54,0000.40
2022-11-28 06:14:00,,0813.0,5.00,0.00,21.6,20.2,00.0,30.5,23.4,09.9,0000.0,0002.65,0000.54,0000.40
2022-11-28 06:15:00,,0813.2,5.00,0.00,21.6,20.2,00.0,30.5,23.4,09.9,0000.0,0002.65,0000.54,0000.39
2022-11-28 06:16:00,,0813.3,5.01,0.00,21.6,20.2,00.0,30.5,23.4,09.9,0000.0,0002.84,0000.53,0000.38
2022-11-28 06:17:00,,0813.4,5.00,0.00,21.6,20.2,00.0,30.5,23.4,10.0,0000.0,0002.99,0000.54,0000.38
2022-11-28 06:18:00,,0813.7,5.00,0.00,21.6,20.2,00.0,30.5,23.4,10.0,0000.0,0002.95,0000.54,0000.39
2022-11-28 06:19:00,,0814.0,5.00,0.00,21.6,20.1,00.0,30.5,23.4,09.9,0000.0,0001.89,0000.54,0000.39
2022-11-28 06:20:00,,0813.8,5.00,0.00,21.5,20.0,00.0,30.5,23.3,09.8,0000.0,0001.38,0000.56,0000.40
2022-11-28 06:21:00,,0813.0,5.00,0.00,21.5,19.9,00.0,30.5,23.3,09.7,0000.0,0001.43,0000.57,0000.39
2022-11-28 06:22:00,,0813.2,5.01,0.00,21.6,20.5,00.0,30.5,23.4,09.8,0000.0,0001.41,0000.56,0000.38
2022-11-28 06:23:00,,0813.4,5.00,0.00,21.7,21.6,00.0,30.5,23.6,09.7,0000.0,0001.36,0000.53,0000.37
2022-11-28 06:24:00,,0813.5,4.99,0.00,21.8,22.0,00.0,30.5,23.8,09.9,0000.0,0001.35,0000.53,0000.38
2022-11-28 06:25:00,,0813.5,5.00,0.00,21.8,21.7,00.0,30.6,23.8,09.8,0000.0,0001.31,0000.52,0000.38
2022-11-28 06:26:00,,0813.5,5.02,0.00,21.8,21.5,00.0,30.6,23.8,10.1,0000.0,0001.40,0000.54,0000.38
2022-11-28 06:27:00,,0814.1,5.01,0.00,21.8,21.2,00.0,30.6,23.8,10.1,0000.0,0001.30,0000.54,0000.40
2022-11-28 06:28:00,,0813.6,4.99,0.00,21.8,21.0,00.0,30.7,23.8,10.1,0000.0,0001.10,0000.57,0000.41
2022-11-28 06:29:00,,0813.5,5.00,0.00,21.8,20.8,00.0,30.7,23.7,10.1,0000.0,0001.12,0000.58,0000.42
2022-11-28 06:30:00,,0813.6,5.00,0.00,21.8,20.8,00.0,30.7,23.8,10.2,0000.0,0001.29,0000.60,0000.43
2022-11-28 06:31:00,,0813.9,5.00,0.00,21.9,20.8,00.0,30.7,23.8,10.1,0000.0,0001.33,0000.59,0000.44
2022-11-28 06:32:00,,0814.3,5.00,0.00,21.9,20.7,00.0,30.7,23.7,10.0,0000.0,0001.28,0000.59,0000.45
2022-11-28 06:33:00,,0814.2,5.00,0.00,21.8,20.5,00.0,30.7,23.7,10.2,0000.0,0001.67,0000.64,0000.48
2022-11-28 06:34:00,,0814.1,5.01,0.00,21.8,20.3,00.0,30.7,23.6,10.3,0000.0,0002.35,0000.66,0000.51
2022-11-28 06:35:00,,0814.3,5.00,0.00,21.8,20.1,00.0,30.7,23.5,10.5,0000.0,0002.38,0000.68,0000.53
2022-11-28 06:36:00,,0813.7,5.00,0.00,21.7,20.0,00.0,30.7,23.5,10.5,0000.0,0002.52,0000.70,0000.55
2022-11-28 06:37:00,,0813.6,5.00,0.00,21.7,20.0,00.0,30.7,23.5,10.5,0000.0,0002.57,0000.72,0000.57
2022-11-28 06:38:00,,0813.5,5.01,0.00,21.7,20.0,00.0,30.7,23.5,10.4,0000.0,0002.60,0000.77,0000.60
2022-11-28 06:39:00,,0813.5,5.00,0.00,21.7,20.0,00.0,30.7,23.5,10.3,0000.0,0002.57,0000.76,0000.62
2022-11-28 06:40:00,,0813.6,5.00,0.00,21.7,20.0,00.0,30.7,23.4,10.5,0000.0,0002.59,0000.78,0000.64
2022-11-28 06:41:00,,0813.8,5.00,0.00,21.7,20.1,00.0,30.7,23.5,10.5,0000.0,0002.49,0000.79,0000.65
2022-11-28 06:42:00,,0814.1,5.00,0.00,21.6,20.1,00.0,30.7,23.5,10.4,0000.0,0002.43,0000.83,0000.67
2022-11-28 06:43:00,,0813.7,5.00,0.00,21.6,20.1,00.0,30.7,23.5,10.2,0000.0,0002.43,0000.83,0000.67
2022-11-28 06:44:00,,0813.4,5.00,0.00,21.6,20.1,00.0,30.7,23.4,09.9,0000.0,0002.12,0000.82,0000.66
2022-11-28 06:45:00,,0813.5,5.00,0.00,21.6,20.1,00.0,30.6,23.4,09.9,0000.0,0001.49,0000.82,0000.66
2022-11-28 06:46:00,,0813.5,5.00,0.00,21.6,20.1,00.0,30.6,23.4,10.0,0000.0,0001.55,0000.85,0000.66
2022-11-28 06:47:00,,0813.6,5.00,0.00,21.6,20.1,00.0,30.6,23.4,09.9,0000.0,0001.46,0000.85,0000.66
2022-11-28 06:48:00,,0813.4,5.00,0.00,21.6,20.6,00.0,30.6,23.5,10.0,0000.0,0001.62,0000.85,0000.66
2022-11-28 06:49:00,,0813.4,5.00,0.00,21.7,21.6,00.0,30.5,23.7,09.8,0000.0,0001.98,0000.81,0000.64
2022-11-28 06:50:00,,0813.3,4.99,0.00,21.8,22.0,00.0,30.6,23.9,09.9,0000.0,0002.00,0000.81,0000.63
2022-11-28 06:51:00,,0813.3,4.98,0.00,21.9,21.8,00.0,30.6,23.9,09.9,0000.0,0002.00,0000.79,0000.61
2022-11-28 06:52:00,,0813.3,5.00,0.00,21.9,21.5,00.0,30.7,23.9,10.0,0000.0,0002.06,0000.80,0000.60
2022-11-28 06:53:00,,0813.5,5.00,0.00,21.9,21.2,00.0,30.7,23.8,09.8,0000.0,0002.33,0000.78,0000.58
2022-11-28 06:54:00,,0813.9,5.00,0.00,21.9,21.1,00.0,30.7,23.8,10.0,0000.0,0003.83,0000.81,0000.59
2022-11-28 06:55:00,,0814.3,5.00,0.00,21.9,21.0,00.0,30.8,23.8,10.0,0000.0,0003.77,0000.82,0000.61
2022-11-28 06:56:00,,0814.0,5.00,0.00,21.9,20.9,00.0,30.8,23.8,10.0,0000.0,0004.05,0000.84,0000.63
2022-11-28 06:57:00,,0813.5,5.00,0.00,21.9,20.8,00.0,30.8,23.8,09.9,0000.0,0004.40,0000.82,0000.64
2022-11-28 06:58:00,,0813.5,5.00,0.00,21.9,20.7,00.0,30.8,23.8,10.0,0000.0,0004.51,0000.86,0000.66
2022-11-28 06:59:00,,0813.5,5.00,0.00,21.9,20.7,00.0,30.8,23.8,10.1,0000.0,0004.41,0000.90,0000.67
